Time,TemperatureF,DewpointF,PressureIn,WindDirection,WindDirectionDegrees,WindSpeedMPH,WindSpeedGustMPH,Humidity,HourlyPrecipIn,Conditions,Clouds,dailyrainin,SolarRadiationWatts/m^2,SoftwareType,DateUTC
2013-04-10 00:01:00,42.0,39.0,-100.00,South,190,18.0,23.0,90,0.00,,,0.00,0.000000,,2013-04-10 07:01:00,
2013-04-10 00:32:00,42.0,39.0,-100.00,South,190,18.0,23.0,90,0.00,,,0.00,0.000000,,2013-04-10 07:32:00,
2013-04-10 00:42:00,42.0,39.0,-100.00,South,190,18.0,23.0,90,0.00,,,0.00,0.000000,,2013-04-10 07:42:00,
2013-04-10 00:52:00,42.0,39.0,-100.00,South,190,18.0,23.0,90,0.00,,,0.00,0.000000,,2013-04-10 07:52:00,
2013-04-10 01:01:00,42.0,40.0,-100.00,South,187,19.0,23.0,92,0.00,,,0.00,0.000000,,2013-04-10 08:01:00,
2013-04-10 01:32:00,42.0,40.0,-100.00,South,187,19.0,23.0,92,0.00,,,0.00,0.000000,,2013-04-10 08:32:00,
2013-04-10 01:42:00,42.0,40.0,-100.00,South,187,19.0,23.0,92,0.00,,,0.00,0.000000,,2013-04-10 08:42:00,
2013-04-10 01:52:00,42.0,40.0,-100.00,South,187,19.0,23.0,92,0.00,,,0.00,0.000000,,2013-04-10 08:52:00,
2013-04-10 02:01:00,42.0,40.0,-100.00,South,186,17.0,23.0,92,0.00,,,0.00,0.000000,,2013-04-10 09:01:00,
2013-04-10 02:32:00,42.0,40.0,-100.00,South,186,17.0,23.0,92,0.00,,,0.00,0.000000,,2013-04-10 09:32:00,
2013-04-10 02:43:00,42.0,40.0,-100.00,South,186,17.0,23.0,92,0.00,,,0.00,0.000000,,2013-04-10 09:43:00,
2013-04-10 02:53:00,42.0,40.0,-100.00,South,186,17.0,23.0,92,0.00,,,0.00,0.000000,,2013-04-10 09:53:00,
2013-04-10 03:01:00,41.0,41.0,-100.00,SSW,198,18.0,23.0,99,0.00,,,0.00,0.000000,,2013-04-10 10:01:00,
2013-04-10 03:33:00,41.0,41.0,-100.00,SSW,198,18.0,23.0,99,0.00,,,0.00,0.000000,,2013-04-10 10:33:00,
2013-04-10 03:43:00,41.0,41.0,-100.00,SSW,198,18.0,23.0,99,0.00,,,0.00,0.000000,,2013-04-10 10:43:00,
2013-04-10 03:52:00,41.0,41.0,-100.00,SSW,198,18.0,23.0,99,0.00,,,0.00,0.000000,,2013-04-10 10:52:00,
2013-04-10 06:01:00,41.0,41.0,-100.00,SSW,197,19.0,23.0,100,-99.99,,,0.01,0.000000,,2013-04-10 13:01:00,
2013-04-10 06:32:00,41.0,41.0,-100.00,SSW,197,19.0,23.0,100,-99.99,,,0.01,0.000000,,2013-04-10 13:32:00,
2013-04-10 06:43:00,41.0,41.0,-100.00,SSW,197,19.0,23.0,100,-99.99,,,0.01,0.000000,,2013-04-10 13:43:00,
2013-04-10 06:53:00,41.0,41.0,-100.00,SSW,197,19.0,23.0,100,-99.99,,,0.01,0.000000,,2013-04-10 13:53:00,
2013-04-10 07:01:00,40.0,40.0,-100.00,SSW,194,17.0,23.0,100,0.01,,,0.02,0.000000,,2013-04-10 14:01:00,
2013-04-10 07:22:00,40.0,40.0,-100.00,SSW,194,17.0,23.0,100,0.01,,,0.02,0.000000,,2013-04-10 14:22:00,
2013-04-10 07:33:00,40.0,40.0,-100.00,SSW,194,17.0,23.0,100,0.01,,,0.02,0.000000,,2013-04-10 14:33:00,
2013-04-10 07:42:00,40.0,40.0,-100.00,SSW,194,17.0,23.0,100,0.01,,,0.02,0.000000,,2013-04-10 14:42:00,
2013-04-10 07:52:00,40.0,40.0,-100.00,SSW,194,17.0,23.0,100,0.01,,,0.02,0.000000,,2013-04-10 14:52:00,
2013-04-10 09:01:00,41.0,41.0,-100.00,SSW,198,19.0,23.0,100,-99.99,,,0.07,16.000000,,2013-04-10 16:01:00,
2013-04-10 09:23:00,41.0,41.0,-100.00,SSW,198,19.0,23.0,100,-99.99,,,0.07,16.000000,,2013-04-10 16:23:00,
2013-04-10 09:33:00,41.0,41.0,-100.00,SSW,198,19.0,23.0,100,-99.99,,,0.07,16.000000,,2013-04-10 16:33:00,
2013-04-10 09:43:00,41.0,41.0,-100.00,SSW,198,19.0,23.0,100,-99.99,,,0.07,16.000000,,2013-04-10 16:43:00,
2013-04-10 09:53:00,41.0,41.0,-100.00,SSW,198,19.0,23.0,100,-99.99,,,0.07,16.000000,,2013-04-10 16:53:00,
2013-04-10 10:01:00,43.0,43.0,-100.00,SSW,202,17.0,23.0,100,0.08,,,0.15,32.000000,,2013-04-10 17:01:00,
2013-04-10 10:33:00,43.0,43.0,-100.00,SSW,202,17.0,23.0,100,0.08,,,0.15,32.000000,,2013-04-10 17:33:00,
2013-04-10 10:43:00,43.0,43.0,-100.00,SSW,202,17.0,23.0,100,0.08,,,0.15,32.000000,,2013-04-10 17:43:00,
2013-04-10 10:52:00,43.0,43.0,-100.00,SSW,202,17.0,23.0,100,0.08,,,0.15,32.000000,,2013-04-10 17:52:00,
2013-04-10 11:01:00,44.0,44.0,-100.00,WSW,241,14.0,23.0,100,0.20,,,0.35,56.000000,,2013-04-10 18:01:00,
2013-04-10 11:23:00,44.0,44.0,-100.00,WSW,241,14.0,23.0,100,0.20,,,0.35,56.000000,,2013-04-10 18:23:00,
2013-04-10 11:33:00,44.0,44.0,-100.00,WSW,241,14.0,23.0,100,0.20,,,0.35,56.000000,,2013-04-10 18:33:00,
2013-04-10 11:43:00,44.0,44.0,-100.00,WSW,241,14.0,23.0,100,0.20,,,0.35,56.000000,,2013-04-10 18:43:00,
2013-04-10 11:52:00,44.0,44.0,-100.00,WSW,241,14.0,23.0,100,0.20,,,0.35,56.000000,,2013-04-10 18:52:00,
2013-04-10 12:01:00,42.0,42.0,-100.00,West,274,12.0,23.0,100,0.04,,,0.39,232.000000,,2013-04-10 19:01:00,
2013-04-10 12:22:00,42.0,42.0,-100.00,West,274,12.0,23.0,100,0.04,,,0.39,232.000000,,2013-04-10 19:22:00,
2013-04-10 12:33:00,42.0,42.0,-100.00,West,274,12.0,23.0,100,0.04,,,0.39,232.000000,,2013-04-10 19:33:00,
2013-04-10 12:42:00,42.0,42.0,-100.00,West,274,12.0,23.0,100,0.04,,,0.39,232.000000,,2013-04-10 19:42:00,
2013-04-10 12:53:00,42.0,42.0,-100.00,West,274,12.0,23.0,100,0.04,,,0.39,232.000000,,2013-04-10 19:53:00,
2013-04-10 13:01:00,42.0,42.0,-100.00,WNW,290,16.0,23.0,100,0.01,,,0.40,250.000000,,2013-04-10 20:01:00,
2013-04-10 13:33:00,42.0,42.0,-100.00,WNW,290,16.0,23.0,100,0.01,,,0.40,250.000000,,2013-04-10 20:33:00,
2013-04-10 13:42:00,42.0,42.0,-100.00,WNW,290,16.0,23.0,100,0.01,,,0.40,250.000000,,2013-04-10 20:42:00,
2013-04-10 13:52:00,42.0,42.0,-100.00,WNW,290,16.0,23.0,100,0.01,,,0.40,250.000000,,2013-04-10 20:52:00,
2013-04-10 14:01:00,41.0,41.0,-100.00,West,281,17.0,23.0,100,0.00,,,0.40,187.000000,,2013-04-10 21:01:00,
2013-04-10 14:33:00,41.0,41.0,-100.00,West,281,17.0,23.0,100,0.00,,,0.40,187.000000,,2013-04-10 21:33:00,
2013-04-10 14:43:00,41.0,41.0,-100.00,West,281,17.0,23.0,100,0.00,,,0.40,187.000000,,2013-04-10 21:43:00,
2013-04-10 14:53:00,41.0,41.0,-100.00,West,281,17.0,23.0,100,0.00,,,0.40,187.000000,,2013-04-10 21:53:00,
2013-04-10 15:01:00,43.0,43.0,-100.00,WNW,283,18.0,23.0,99,0.00,,,0.40,558.000000,,2013-04-10 22:01:00,
2013-04-10 15:34:00,43.0,43.0,-100.00,WNW,283,18.0,23.0,99,0.00,,,0.40,558.000000,,2013-04-10 22:34:00,
2013-04-10 15:42:00,43.0,43.0,-100.00,WNW,283,18.0,23.0,99,0.00,,,0.40,558.000000,,2013-04-10 22:42:00,
2013-04-10 15:52:00,43.0,43.0,-100.00,WNW,283,18.0,23.0,99,0.00,,,0.40,558.000000,,2013-04-10 22:52:00,
2013-04-10 16:01:00,41.0,40.0,-100.00,West,277,17.0,23.0,97,0.00,,,-99.99,497.000000,,2013-04-10 23:01:00,
2013-04-10 16:33:00,41.0,40.0,-100.00,West,277,17.0,23.0,97,0.00,,,-99.99,497.000000,,2013-04-10 23:33:00,
2013-04-10 16:43:00,41.0,40.0,-100.00,West,277,17.0,23.0,97,0.00,,,-99.99,497.000000,,2013-04-10 23:43:00,
2013-04-10 16:52:00,41.0,40.0,-100.00,West,277,17.0,23.0,97,0.00,,,-99.99,497.000000,,2013-04-10 23:52:00,
2013-04-10 17:01:00,40.0,39.0,-100.00,West,266,17.0,23.0,98,0.00,,,0.40,395.000000,,2013-04-11 00:01:00,
2013-04-10 17:32:00,40.0,39.0,-100.00,West,266,17.0,23.0,98,0.00,,,0.40,395.000000,,2013-04-11 00:32:00,
2013-04-10 17:42:00,40.0,39.0,-100.00,West,266,17.0,23.0,98,0.00,,,0.40,395.000000,,2013-04-11 00:42:00,
2013-04-10 17:52:00,40.0,39.0,-100.00,West,266,17.0,23.0,98,0.00,,,0.40,395.000000,,2013-04-11 00:52:00,
2013-04-10 18:01:00,39.0,38.0,-100.00,WNW,292,17.0,23.0,98,0.00,,,0.40,333.000000,,2013-04-11 01:01:00,
2013-04-10 18:32:00,39.0,38.0,-100.00,WNW,292,17.0,23.0,98,0.00,,,0.40,333.000000,,2013-04-11 01:32:00,
2013-04-10 18:42:00,39.0,38.0,-100.00,WNW,292,17.0,23.0,98,0.00,,,0.40,333.000000,,2013-04-11 01:42:00,
2013-04-10 18:52:00,39.0,38.0,-100.00,WNW,292,17.0,23.0,98,0.00,,,0.40,333.000000,,2013-04-11 01:52:00,
2013-04-10 19:01:00,38.0,38.0,-100.00,WNW,285,15.0,23.0,99,0.00,,,0.40,180.000000,,2013-04-11 02:01:00,
2013-04-10 19:32:00,38.0,38.0,-100.00,WNW,285,15.0,23.0,99,0.00,,,0.40,180.000000,,2013-04-11 02:32:00,
2013-04-10 19:42:00,38.0,38.0,-100.00,WNW,285,15.0,23.0,99,0.00,,,0.40,180.000000,,2013-04-11 02:42:00,
2013-04-10 19:52:00,38.0,38.0,-100.00,WNW,285,15.0,23.0,99,0.00,,,0.40,180.000000,,2013-04-11 02:52:00,
2013-04-10 20:01:00,37.0,36.0,-100.00,WNW,282,15.0,23.0,97,0.00,,,0.40,87.000000,,2013-04-11 03:01:00,
2013-04-10 20:33:00,37.0,36.0,-100.00,WNW,282,15.0,23.0,97,0.00,,,0.40,87.000000,,2013-04-11 03:33:00,
2013-04-10 20:43:00,37.0,36.0,-100.00,WNW,282,15.0,23.0,97,0.00,,,0.40,87.000000,,2013-04-11 03:43:00,
2013-04-10 20:53:00,37.0,36.0,-100.00,WNW,282,15.0,23.0,97,0.00,,,0.40,87.000000,,2013-04-11 03:53:00,
2013-04-10 21:01:00,37.0,36.0,-100.00,West,280,16.0,23.0,98,0.00,,,0.40,20.000000,,2013-04-11 04:01:00,
2013-04-10 21:33:00,37.0,36.0,-100.00,West,280,16.0,23.0,98,0.00,,,0.40,20.000000,,2013-04-11 04:33:00,
2013-04-10 21:43:00,37.0,36.0,-100.00,West,280,16.0,23.0,98,0.00,,,0.40,20.000000,,2013-04-11 04:43:00,
2013-04-10 21:52:00,37.0,36.0,-100.00,West,280,16.0,23.0,98,0.00,,,0.40,20.000000,,2013-04-11 04:52:00,
2013-04-10 22:01:00,37.0,36.0,-100.00,WNW,288,17.0,23.0,96,0.00,,,0.40,0.000000,,2013-04-11 05:01:00,
2013-04-10 22:23:00,37.0,36.0,-100.00,WNW,288,17.0,23.0,96,0.00,,,0.40,0.000000,,2013-04-11 05:23:00,
2013-04-10 22:32:00,37.0,36.0,-100.00,WNW,288,17.0,23.0,96,0.00,,,0.40,0.000000,,2013-04-11 05:32:00,
2013-04-10 22:42:00,37.0,36.0,-100.00,WNW,288,17.0,23.0,96,0.00,,,0.40,0.000000,,2013-04-11 05:42:00,
2013-04-10 22:52:00,37.0,36.0,-100.00,WNW,288,17.0,23.0,96,0.00,,,0.40,0.000000,,2013-04-11 05:52:00,
2013-04-10 23:01:00,35.0,35.0,-100.00,WNW,300,14.0,23.0,99,0.00,,,0.40,0.000000,,2013-04-11 06:01:00,
2013-04-10 23:32:00,35.0,35.0,-100.00,WNW,300,14.0,23.0,99,0.00,,,0.40,0.000000,,2013-04-11 06:32:00,
2013-04-10 23:42:00,35.0,35.0,-100.00,WNW,300,14.0,23.0,99,0.00,,,0.40,0.000000,,2013-04-11 06:42:00,
2013-04-10 23:52:00,35.0,35.0,-100.00,WNW,300,14.0,23.0,99,0.00,,,0.40,0.000000,,2013-04-11 06:52:00,